Regional Weather Roundup
Issued by NWS

Home | Current Version | Previous Version | Text Only | Print | Product List | Glossary On
Versions: 1 2 3 4 5 6 7 8 9 10 11 12 13 14 15 16 17 18 19 20 21 22 23 24 25 26 27 28 29 30 31 32 33 34 35 36 37 38 39 40 41 42 43 44 45 46 47 48 49 50
000
ASUS43 KBIS 260810
RWRND

NORTH DAKOTA REGIONAL WEATHER ROUNDUP
NATIONAL WEATHER SERVICE BISMARCK ND
200 AM CST WED NOV 26 2014

NOTE: "FAIR" INDICATES FEW OR NO CLOUDS BELOW 12,000 FEET WITH NO
SIGNIFICANT WEATHER AND/OR OBSTRUCTIONS TO VISIBILITY.


NDZ001>003-009>011-017-260900-
NORTHWEST NORTH DAKOTA

CITY           SKY/WX    TMP DP  RH WIND       PRES   REMARKS
WILLISTON      CLOUDY    16   9  74 CALM      30.24R
MINOT          CLOUDY     4   0  83 NW8       30.23R WCI  -9
MINOT AFB      CLOUDY     5   1  85 N3        30.24R
$$

NDZ018>021-031>035-040>046-260900-
SOUTHWEST NORTH DAKOTA

CITY           SKY/WX    TMP DP  RH WIND       PRES   REMARKS
BISMARCK       CLOUDY    14   9  80 N12       30.20R WCI   0
DICKINSON      CLOUDY    19  15  84 NW8       30.15R WCI   9
GARRISON         N/A      6   3  87 N8        30.21R WCI  -7
HETTINGER ARPT CLOUDY    21  17  84 NW10      30.16R WCI  10
$$

NDZ004>008-012>016-024-026-027-054-260900-
NORTHEAST NORTH DAKOTA

CITY           SKY/WX    TMP DP  RH WIND       PRES   REMARKS
GRAND FORKS    PTCLDY     7   2  80 N16       30.22R WCI -11
GRND FRKS AFB  CLOUDY     6   2  81 N17G23    30.23R WCI -12
DEVILS LAKE    PTCLDY     3  -6  66 N9        30.19R WCI -11
$$

NDZ022-023-025-028>030-036>039-047>053-260900-
SOUTHEAST NORTH DAKOTA

CITY           SKY/WX    TMP DP  RH WIND       PRES   REMARKS
FARGO          CLOUDY    16  11  80 N21G30    30.12R WCI  -1
JAMESTOWN      LGT SNOW  11   6  81 N16       30.14R WCI  -6
$$




USA.gov is the U.S. government's official web portal to all federal, state and local government web resources and services.